Marshalltown, IA

11:43 AM CST on February 21, 2017 (GMT -0600)
Marshalltown Municipal

Weather History for KMIW - March, 2012

Change the Weather History Date:

Wednesday, March 14, 2012

  Actual Average Record
Temperature  
Mean Temperature 65 °F 35 °F  
Max Temperature 77 °F 45 °F 77 °F (2012)
Min Temperature 52 °F 25 °F 10 °F (1997)
Degree Days  
Heating Degree Days 0 30  
Month to date heating degree days 333 462  
Since 1 July heating degree days 4949 5865  
Cooling Degree Days 0 0  
Month to date cooling degree days 0 0  
Year to date cooling degree days 0 0  
Growing Degree Days 15 (Base 50)    
Moisture  
Dew Point 54 °F    
Average Humidity 68    
Maximum Humidity 86    
Minimum Humidity 50    
Precipitation  
Precipitation 0.00 in 0.06 in 0.01 in (2001)
Month to date precipitation 0.38 0.72  
Year to date precipitation 1.21  
Sea Level Pressure  
Sea Level Pressure 29.84 in    
Wind  
Wind Speed 10 mph (SSW)    
Max Wind Speed 22 mph    
Max Gust Speed 29 mph    
Visibility 10 miles    
Events      
T = Trace of Precipitation, MM = Missing Value Source: NWS Daily Summary

Daily Weather History Graph

Daily Weather History Graph

Search for Another Location

Airport or City:

Trip Planner

Search our weather history database for the weather conditions in past years. The results will help you decide how hot, cold, wet, or windy it might be!

Date:

Astronomy

Mar. 14, 2012 Rise Set
Actual Time 7:24 AM CDT 7:17 PM CDT
Civil Twilight 6:56 AM CDT 7:45 PM CDT
Nautical Twilight 6:24 AM CDT 8:18 PM CDT
Astronomical Twilight 5:51 AM CDT 8:51 PM CDT
Moon 2:00 AM CDT (3/14) 11:28 AM CDT (3/14)
Length of Visible Light 12h 48m
Length of Day
11h 53m
Waning Gibbous, 54% of the Moon is Illuminated
Mar 14
Waning Gibbous
Mar 14
Last Quarter
Mar 22
New
Mar 30
First Quarter
Apr 6
Full

Hourly Weather History & Observations

Time (CDT) Temp. Dew Point Humidity Pressure Visibility Wind Dir Wind Speed Gust Speed Precip Events Conditions
12:53 AM 55.9 °F 46.9 °F 72% 29.87 in 10.0 mi SSE 12.7 mph - N/A   Clear
1:53 AM 55.9 °F 46.0 °F 69% 29.85 in 10.0 mi SSE 11.5 mph - N/A   Clear
3:53 AM 57.0 °F 46.0 °F 67% 29.82 in 10.0 mi SSE 9.2 mph - N/A   Clear
4:53 AM 57.9 °F 48.0 °F 70% 29.81 in 10.0 mi SSE 11.5 mph - N/A   Clear
5:53 AM 57.0 °F 50.0 °F 77% 29.82 in 10.0 mi South 9.2 mph - N/A   Clear
6:53 AM 55.9 °F 50.0 °F 80% 29.83 in 10.0 mi South 10.4 mph - N/A   Clear
7:53 AM 57.0 °F 51.1 °F 81% 29.84 in 10.0 mi South 11.5 mph - N/A   Clear
8:53 AM 59.0 °F 54.0 °F 83% 29.85 in 10.0 mi South 12.7 mph - N/A   Clear
9:53 AM 63.0 °F 55.9 °F 78% 29.85 in 10.0 mi SSW 18.4 mph 26.5 mph N/A   Mostly Cloudy
10:23 AM 64.4 °F 57.2 °F 77% 29.86 in 10.0 mi SSW 17.3 mph 27.6 mph N/A   Scattered Clouds
10:53 AM 66.9 °F 57.9 °F 73% 29.85 in 10.0 mi SSW 18.4 mph 24.2 mph N/A   Mostly Cloudy
11:05 AM 68.0 °F 57.2 °F 68% 29.86 in 10.0 mi SSW 17.3 mph 23.0 mph N/A   Scattered Clouds
11:21 AM 69.8 °F 57.2 °F 64% 29.86 in 10.0 mi SSW 18.4 mph 21.9 mph N/A   Mostly Cloudy
11:53 AM 69.1 °F 57.0 °F 65% 29.84 in 10.0 mi SSW 15.0 mph - N/A   Mostly Cloudy
12:15 PM 71.6 °F 57.2 °F 60% 29.85 in 10.0 mi SSW 16.1 mph 23.0 mph N/A   Scattered Clouds
12:53 PM 73.0 °F 57.0 °F 57% 29.84 in 10.0 mi SSW 16.1 mph 24.2 mph N/A   Partly Cloudy
1:53 PM 75.0 °F 57.0 °F 53% 29.82 in 10.0 mi SSW 15.0 mph - N/A   Clear
2:53 PM 75.9 °F 57.0 °F 52% 29.81 in 10.0 mi SSW 15.0 mph 23.0 mph N/A   Scattered Clouds
3:53 PM 75.0 °F 55.9 °F 51% 29.80 in 10.0 mi South 16.1 mph 26.5 mph N/A   Partly Cloudy
4:53 PM 75.9 °F 55.9 °F 50% 29.80 in 10.0 mi SW 18.4 mph 21.9 mph N/A   Partly Cloudy
5:53 PM 75.9 °F 55.0 °F 48% 29.80 in 10.0 mi SW 15.0 mph - N/A   Partly Cloudy
6:53 PM 73.0 °F 55.0 °F 53% 29.83 in 10.0 mi West 9.2 mph - N/A   Partly Cloudy
7:53 PM 66.9 °F 53.1 °F 61% 29.85 in 10.0 mi Calm Calm - N/A   Mostly Cloudy
8:53 PM 64.0 °F 53.1 °F 67% 29.86 in 10.0 mi Calm Calm - N/A   Clear
9:53 PM 60.1 °F 52.0 °F 75% 29.87 in 10.0 mi Calm Calm - N/A   Clear
10:53 PM 60.1 °F 52.0 °F 75% 29.87 in 10.0 mi South 4.6 mph - N/A   Clear
11:53 PM 55.0 °F 51.1 °F 86% 29.88 in 10.0 mi Calm Calm - N/A   Clear